Weather in Providence

United States     41°49′24″N   71°24′50″W
temp.,
°C
wind,
m/s
gust,
m/s
humid.,
%
clouds,
%
prec.,
mm/h
press.,
hPa
HPBL,
m
26 may, thu
thu2623:00+10ssw2669100 0.0 1029189
02:00+9sw2572100 0.0 1029145
05:00+9ssw1471100 0.0 1028119
08:00+13s3657100 0.0 1028463
11:00+18s4639100 0.0 1027944
14:00+19s5840100 0.0 10251141
17:00+19ssw695388 0.0 10231155
20:00+15ssw4117966 0.0 1022739
27 may, fri
fri2723:00+14ssw313911 0.0 1021544
02:00+14sw3139612 0.0 1019494
05:00+16ssw31293100 0.0 1018554
08:00+18ssw41392100 0.1 1017644
11:00+19ssw51491100 0.2 1016692
14:00+24ssw6116796 0.3 10141200
17:00+22ssw5137975 0.0 1013869
20:00+18ssw41593100 0.0 1013627
28 may, sat
sat2823:00+17ssw41298100 0.4 1012484
02:00+17s31399100 1.4 1010557
05:00+17ssw41298100 0.6 1009510
08:00+18ssw41398100 1.1 1008789
11:00+19ssw41193100 0.1 1008706
14:00+23sw4767100 0.1 1007755
17:00+22ssw4867100 0.0 1006672
20:00+18ssw27881 0.1 1007279
29 may, sun
sun2923:00+17sw2297100 1.2 100863
02:00+16nw28969 1.2 1010261
05:00+14nw210912 0.0 1012293
08:00+17n36665 0.0 1014447
11:00+23n23385 0.0 10161337
14:00+27wnw232895 0.0 10152013
17:00+27sse132924 0.0 10151758
20:00+19s386515 0.0 1017309
30 may, mon
mon3023:00+16sw297274 0.0 1018209
02:00+15wsw387682 0.0 1018176
05:00+15wsw2778100 0.0 1018133
08:00+21wsw3862100 0.0 1018296
11:00+26wsw464399 0.0 1018914
14:00+30wsw4735100 0.0 10151936
17:00+28sw6845100 0.0 1013936
20:00+23sw41265100 0.0 1013352